Regional Weather Roundup
Issued by NWS

Home | Current Version | Previous Version | Graphics & Text | Print | Product List | Glossary On
Versions: 1 2 3 4 5 6 7 8 9 10 11 12 13 14 15 16 17 18 19 20 21 22 23 24 25 26 27 28 29 30 31 32 33 34 35 36 37 38 39 40 41 42 43 44 45 46 47 48 49 50
044
ASUS44 KJAN 310310
RWRMS

MISSISSIPPI HOURLY WEATHER ROUNDUP
NATIONAL WEATHER SERVICE JACKSON MS
900 PM CST FRI JAN 30 2015

NOTE: "FAIR: INDICATES FEW OR NO CLOUDS BELOW 12,000 FEET WITH NO
SIGNIFICANT WEATHER AND/OR OBSTRUCTIONS TO VISIBILITY.

MSZ001>002-007>008-010>013-018>021-025>028-034>036-310400-
NORTHWEST MISSISSIPPI

CITY           SKY/WX    TMP DP  RH WIND       PRES   REMARKS
CLARKSDALE     FAIR      36  28  75 N6        30.44F WCI  31
CLEVELAND      FAIR      39  32  76 N7        30.42S WCI  34
GREENWOOD      PTCLDY    37  29  72 NE5       30.42R WCI  33
GREENVILLE     PTCLDY    35  29  78 N6        30.41F WCI  30
GRENADA        FAIR      32  30  93 N3        30.43R
OLIVE BRANCH   CLEAR     34  27  75 CALM      30.44S
OXFORD         FAIR      32  23  69 NE3       30.44S
TUNICA         CLEAR     34  30  86 N9        30.44F WCI  26
$$

MSZ003>006-009-014>017-022>024-029>033-037>039-310400-
NORTHEAST MISSISSIPPI

CITY           SKY/WX    TMP DP  RH WIND       PRES   REMARKS
COLUMBUS AFB   CLEAR     37  26  63 N5        30.41F WCI  33
CORINTH        FAIR      32  27  80 NW3       30.42S
GOLDN TRIANGLE FAIR      37  27  65 N6        30.40S WCI  33
STARKVILLE     FAIR      36  28  75 CALM      30.41S
TUPELO         CLEAR     34  25  69 NE5       30.42S WCI  30
$$

MSZ040-058-310400-
CENTRAL MISSISSIPPI

CITY           SKY/WX    TMP DP  RH WIND       PRES   REMARKS
JACKSON INTL   MOCLDY    44  32  62 CALM      30.39S
JACKSON HAWKNS MOCLDY    45  32  60 VRB3      30.40R
MERIDIAN KEY   MOCLDY    39  31  72 N5        30.39S
MERIDIAN NAS   MOCLDY    41  29  62 NW6       30.39F
RAYMOND        FAIR      39  34  81 MISG      30.40S
VICKSBURG      PTCLDY    40  32  73 N7        30.41S
$$

MSZ059>079-310400-
SOUTH MISSISSIPPI

CITY           SKY/WX    TMP DP  RH WIND       PRES   REMARKS
BROOKHAVEN     FAIR      39  34  81 CALM      30.39S
HATTIESBURG    MOCLDY    40  35  83 CALM      30.39R
MCCOMB         PTCLDY    48  30  49 N5        30.37R
NATCHEZ        PTCLDY    45  32  61 N3        30.39S
PINE BELT      MOCLDY    43  28  56 N3        30.38S
$$

MSZ080>082-310400-
COASTAL MISSISSIPPI

CITY           SKY/WX    TMP DP  RH WIND       PRES   REMARKS
BAY ST LOUIS   CLEAR     37  36  93 CALM      30.37R
BILOXI         MOCLDY    49  35  58 NE6       30.36R
PASCAGOULA     MOCLDY    43  33  68 N6        30.36R
GULFPORT       PTCLDY    49  33  54 N6        30.35R
$$



USA.gov is the U.S. government's official web portal to all federal, state and local government web resources and services.